Total_Precipitation_Accumulation
1.18 1.24 1.00 0.93 0.85 0.96 1.17 1.05 0.81 0.82 0.89 0.91 0.82 0.75 0.68 0.51 0.48 0.50 0.47 0.62 0.69 0.60 0.60 0.58 0.54 0.55 0.56 0.55 0.55 0.55 0.59 0.60 0.54 0.44 0.36 0.26 0.20 0.21 0.15 0.09 0.06 0.04 0.04
1.41 1.27 1.21 1.18 1.09 1.22 1.24 1.21 1.11 1.10 1.06 1.09 0.89 0.76 0.70 0.61 0.57 0.61 0.56 0.66 0.71 0.59 0.54 0.60 0.57 0.53 0.56 0.56 0.57 0.59 0.58 0.59 0.51 0.42 0.37 0.31 0.24 0.24 0.23 0.19 0.18 0.12 0.08
1.44 1.46 1.36 1.22 1.26 1.34 1.36 1.39 1.35 1.29 1.09 1.04 0.90 0.85 0.76 0.70 0.70 0.65 0.53 0.49 0.49 0.56 0.55 0.53 0.54 0.50 0.51 0.54 0.60 0.63 0.55 0.50 0.44 0.35 0.30 0.29 0.27 0.23 0.22 0.23 0.25 0.22 0.16
1.24 1.29 1.19 1.17 1.26 1.16 1.12 1.11 1.05 1.01 0.97 1.00 0.89 0.73 0.66 0.68 0.68 0.65 0.51 0.39 0.37 0.30 0.39 0.50 0.55 0.46 0.50 0.58 0.64 0.65 0.50 0.36 0.29 0.28 0.26 0.23 0.23 0.19 0.15 0.14 0.16 0.22 0.19
0.77 0.80 0.77 0.80 0.88 0.87 0.84 0.77 0.84 0.84 0.82 0.88 0.91 0.70 0.59 0.61 0.61 0.58 0.51 0.37 0.38 0.34 0.26 0.34 0.39 0.35 0.47 0.58 0.63 0.62 0.53 0.41 0.30 0.28 0.29 0.28 0.26 0.18 0.12 0.09 0.10 0.12 0.14
0.60 0.57 0.55 0.55 0.54 0.57 0.61 0.60 0.58 0.61 0.57 0.57 0.57 0.51 0.53 0.46 0.50 0.50 0.41 0.31 0.29 0.24 0.20 0.26 0.37 0.26 0.31 0.41 0.47 0.50 0.51 0.51 0.39 0.33 0.29 0.34 0.41 0.31 0.15 0.10 0.08 0.09 0.10
0.43 0.44 0.41 0.39 0.36 0.35 0.35 0.37 0.41 0.42 0.39 0.44 0.44 0.37 0.35 0.30 0.30 0.29 0.27 0.26 0.20 0.17 0.17 0.21 0.24 0.24 0.22 0.24 0.31 0.37 0.48 0.57 0.52 0.44 0.39 0.36 0.43 0.43 0.26 0.15 0.10 0.10 0.12
0.30 0.30 0.30 0.31 0.29 0.26 0.26 0.27 0.28 0.27 0.26 0.29 0.31 0.30 0.25 0.21 0.16 0.12 0.14 0.12 0.11 0.16 0.15 0.15 0.17 0.24 0.27 0.32 0.34 0.30 0.41 0.53 0.62 0.61 0.58 0.50 0.44 0.39 0.32 0.27 0.18 0.13 0.12
0.22 0.23 0.23 0.23 0.26 0.26 0.26 0.26 0.24 0.23 0.20 0.18 0.22 0.25 0.19 0.13 0.12 0.09 0.08 0.08 0.09 0.12 0.11 0.13 0.14 0.13 0.17 0.29 0.46 0.50 0.44 0.45 0.65 0.77 0.74 0.60 0.45 0.38 0.39 0.39 0.36 0.29 0.20
0.18 0.17 0.17 0.16 0.17 0.21 0.26 0.23 0.25 0.24 0.23 0.17 0.17 0.19 0.18 0.19 0.18 0.14 0.10 0.06 0.11 0.13 0.10 0.12 0.13 0.16 0.25 0.37 0.51 0.60 0.47 0.43 0.54 0.66 0.69 0.62 0.52 0.43 0.42 0.47 0.58 0.58 0.44
0.18 0.18 0.18 0.16 0.15 0.15 0.19 0.20 0.25 0.26 0.27 0.23 0.20 0.20 0.21 0.21 0.21 0.18 0.11 0.09 0.11 0.08 0.08 0.11 0.18 0.20 0.25 0.41 0.65 0.62 0.48 0.40 0.44 0.53 0.55 0.55 0.56 0.51 0.43 0.42 0.59 0.70 0.63
0.18 0.17 0.18 0.18 0.19 0.17 0.15 0.14 0.18 0.23 0.28 0.29 0.24 0.21 0.25 0.23 0.19 0.21 0.15 0.12 0.13 0.08 0.09 0.10 0.17 0.24 0.32 0.42 0.47 0.51 0.51 0.45 0.44 0.49 0.53 0.54 0.54 0.50 0.49 0.52 0.66 0.78 0.82
0.16 0.16 0.16 0.17 0.18 0.19 0.19 0.17 0.15 0.18 0.23 0.27 0.25 0.24 0.25 0.22 0.23 0.24 0.18 0.15 0.20 0.21 0.26 0.24 0.25 0.36 0.40 0.53 0.50 0.48 0.47 0.42 0.34 0.30 0.31 0.37 0.44 0.49 0.54 0.58 0.66 0.72 0.80
0.22 0.21 0.16 0.15 0.16 0.17 0.18 0.18 0.16 0.16 0.20 0.24 0.25 0.32 0.31 0.21 0.24 0.22 0.20 0.25 0.29 0.33 0.37 0.35 0.40 0.57 0.73 0.69 0.67 0.54 0.36 0.30 0.23 0.21 0.19 0.20 0.26 0.33 0.39 0.46 0.53 0.57 0.65
0.23 0.21 0.18 0.14 0.14 0.15 0.17 0.17 0.17 0.19 0.22 0.25 0.30 0.38 0.39 0.35 0.32 0.30 0.30 0.34 0.39 0.36 0.40 0.49 0.54 0.62 0.71 0.65 0.60 0.48 0.33 0.26 0.20 0.16 0.16 0.16 0.16 0.20 0.26 0.29 0.33 0.37 0.43
0.18 0.17 0.16 0.13 0.12 0.13 0.15 0.15 0.17 0.21 0.25 0.31 0.38 0.44 0.49 0.49 0.47 0.43 0.39 0.42 0.50 0.48 0.51 0.54 0.57 0.57 0.55 0.40 0.37 0.32 0.24 0.20 0.15 0.12 0.12 0.13 0.13 0.14 0.17 0.20 0.23 0.27 0.30
0.17 0.15 0.14 0.14 0.12 0.12 0.13 0.16 0.18 0.20 0.24 0.30 0.36 0.42 0.46 0.53 0.59 0.58 0.59 0.58 0.56 0.61 0.59 0.52 0.58 0.61 0.51 0.34 0.24 0.20 0.17 0.13 0.09 0.10 0.11 0.11 0.11 0.12 0.12 0.14 0.18 0.21 0.23
0.15 0.14 0.14 0.13 0.10 0.10 0.13 0.17 0.20 0.21 0.23 0.26 0.33 0.43 0.47 0.49 0.54 0.61 0.70 0.69 0.68 0.74 0.72 0.58 0.59 0.60 0.51 0.39 0.26 0.20 0.12 0.09 0.07 0.09 0.10 0.12 0.12 0.11 0.10 0.09 0.10 0.11 0.12
0.14 0.14 0.14 0.12 0.10 0.09 0.10 0.12 0.17 0.21 0.25 0.27 0.31 0.39 0.47 0.55 0.58 0.61 0.69 0.71 0.74 0.85 0.85 0.74 0.67 0.67 0.61 0.41 0.28 0.19 0.11 0.08 0.05 0.07 0.08 0.10 0.10 0.09 0.08 0.08 0.07 0.05 0.05
0.12 0.14 0.15 0.14 0.14 0.12 0.09 0.09 0.10 0.14 0.18 0.24 0.32 0.35 0.40 0.51 0.60 0.64 0.71 0.81 0.86 0.90 0.93 0.88 0.85 0.83 0.73 0.55 0.39 0.26 0.18 0.11 0.06 0.04 0.05 0.06 0.07 0.08 0.08 0.06 0.05 0.04 0.03
0.11 0.15 0.17 0.17 0.17 0.15 0.09 0.09 0.12 0.11 0.13 0.16 0.22 0.29 0.31 0.36 0.46 0.58 0.67 0.76 0.89 1.00 1.11 1.11 1.07 1.10 0.94 0.72 0.52 0.32 0.23 0.15 0.10 0.06 0.05 0.04 0.04 0.04 0.04 0.04 0.04 0.03 0.02
0.15 0.20 0.21 0.22 0.21 0.14 0.10 0.09 0.09 0.11 0.13 0.15 0.18 0.24 0.25 0.26 0.29 0.36 0.47 0.61 0.75 0.87 1.04 1.15 1.20 1.23 1.17 0.93 0.68 0.44 0.26 0.14 0.14 0.14 0.09 0.08 0.05 0.03 0.02 0.02 0.02 0.02 0.02
0.19 0.24 0.26 0.27 0.27 0.27 0.19 0.13 0.09 0.11 0.14 0.17 0.19 0.21 0.17 0.16 0.22 0.25 0.30 0.38 0.49 0.61 0.73 0.89 1.01 1.03 1.10 1.05 0.78 0.51 0.31 0.18 0.12 0.11 0.10 0.09 0.05 0.03 0.01 0.01 0.01 0.01 0.01
0.24 0.27 0.28 0.31 0.34 0.32 0.24 0.16 0.13 0.13 0.17 0.19 0.20 0.21 0.20 0.18 0.19 0.22 0.26 0.27 0.29 0.35 0.43 0.52 0.64 0.80 0.88 0.90 0.75 0.57 0.40 0.26 0.19 0.12 0.07 0.09 0.07 0.04 0.03 0.02 0.01 0.01 0.00
0.30 0.34 0.37 0.39 0.41 0.40 0.30 0.19 0.14 0.17 0.23 0.22 0.22 0.23 0.24 0.21 0.17 0.14 0.21 0.23 0.24 0.25 0.28 0.35 0.45 0.61 0.72 0.74 0.71 0.54 0.38 0.24 0.20 0.15 0.06 0.05 0.07 0.08 0.09 0.05 0.01 0.00 0.00
0.38 0.41 0.44 0.48 0.52 0.51 0.41 0.24 0.18 0.21 0.27 0.28 0.31 0.31 0.26 0.23 0.20 0.12 0.15 0.18 0.18 0.20 0.22 0.23 0.29 0.39 0.45 0.53 0.56 0.45 0.29 0.20 0.14 0.13 0.07 0.03 0.04 0.06 0.11 0.06 0.02 0.01 0.00